Meteo Giornale » Osservazioni meteo Italia » Bologna-Borgo Panigale

ore: 22:20 - Osservazioni Meteo Bologna-Borgo Panigale
Lat. 44° 32' N Lon. 11° 18' E Alt. 36 metri s.l.m.

nuvoloso Europe/Rome

10 °C

Nuvoloso

Temp. 24 Ore

2 °C

11 °C

Est/Nord-Est

7.4 Km/h

Dew point 9 °C

Umidità 93 %

Visibilità  10 Km

Il sole sorge alle ore 07:08

Il sole tramonta alle ore 16:50

Data e Ora Cielo e Fenomeni T °C DP °C Um. % Pres. hPa Vis. km Vento km/h
Oggi h: 22:20 nuvoloso Nuvoloso 10 9 93 1005 10 E/NE 7.4
Oggi h: 21:50 nuvoloso Nuvoloso 10 9 93 1005 10 N 5.5
Oggi h: 21:20 sereno Sereno 10 9 93 1005 10 NE 7.4
Oggi h: 20:50 nuvoloso Nuvoloso 11 9 87 1005 10 E 16.7
Oggi h: 20:20 molto_nuvoloso Molto Nuvoloso 11 9 87 1006 10 E 14.8
Oggi h: 19:50 coperto_pioggia Pioggia Debole 11 9 87 1006 10 E 7.4
Oggi h: 19:20 nuvoloso Nuvoloso 11 9 87 1006 10 E 7.4
Oggi h: 18:50 nuvoloso Nuvoloso 11 9 87 1006 10 E 7.4
Oggi h: 18:20 nuvoloso Nuvoloso 10 8 87 1006 10 E/SE 7.4
Oggi h: 17:50 nuvoloso Nuvoloso 10 8 87 1006 10 E 7.4
Oggi h: 16:50 nuvoloso Nuvoloso 11 8 81 1007 10 N 5.5
Oggi h: 16:20 nuvoloso Nuvoloso 11 8 81 1007 10 SE 7.4
Oggi h: 15:50 nuvoloso Nuvoloso 11 8 81 1007 10 SE 7.4
Oggi h: 15:20 nuvoloso Nuvoloso 11 8 81 1007 10 E 9.3
Oggi h: 14:50 nuvoloso Nuvoloso 11 7 76 1007 10 E 13
Oggi h: 14:20 nuvoloso Nuvoloso 11 7 76 1007 10 E 13
Oggi h: 13:50 nuvoloso Nuvoloso 11 6 71 1008 10 E 13
Oggi h: 13:20 nuvoloso Nuvoloso 11 6 71 1008 10 E 9.3
Oggi h: 12:50 nuvoloso Nuvoloso 11 6 71 1008 10 E/NE 7.4
Oggi h: 12:20 nuvoloso Nuvoloso 11 5 66 1009 10 E 7.4
Oggi h: 11:50 nuvoloso Nuvoloso 10 4 66 1009 10 N 3.7
Oggi h: 11:20 nuvoloso Nuvoloso 10 4 66 1009 10 N 5.5
Oggi h: 10:50 poco_nuvoloso Poco Nuvoloso 10 3 61 1010 10 N 1.8
Oggi h: 10:20 sereno Sereno 9 3 66 1010 10 N 3.7
Oggi h: 09:50 sereno Sereno 8 4 75 1010 10 N 5.5
Oggi h: 09:20 poco_nuvoloso Poco Nuvoloso 7 4 81 1010 10 N 3.7
Oggi h: 08:50 poco_nuvoloso Poco Nuvoloso 6 4 86 1010 10 SO 11.1
Oggi h: 08:20 poco_nuvoloso Poco Nuvoloso 4 2 86 1009 10 N 3.7
Oggi h: 07:50 poco_nuvoloso Poco Nuvoloso 2 1 93 1009 10 N 5.5
Oggi h: 07:20 poco_nuvoloso Poco Nuvoloso 3 2 93 1009 10 N 3.7
Oggi h: 06:50 poco_nuvoloso Poco Nuvoloso 3 2 93 1009 10 S/SO 7.4
Oggi h: 06:20 sereno Sereno 2 2 100 1009 10 N 3.7
Oggi h: 05:50 sereno Sereno 2 2 100 1008 10 N 5.5
Oggi h: 05:20 sereno Sereno 3 2 93 1008 10 N 1.8
Oggi h: 04:50 sereno Sereno 3 2 93 1008 10 N 3.7
Oggi h: 04:20 sereno Sereno 4 3 93 1008 10 O 7.4
Oggi h: 03:50 sereno Sereno 4 3 93 1007 10 N 5.5
Oggi h: 03:20 sereno Sereno 4 2 86 1007 10 O/SO 7.4
Oggi h: 02:50 sereno Sereno 3 2 93 1007 10 N 5.5
Oggi h: 02:20 sereno Sereno 3 2 93 1007 10 N 5.5
Oggi h: 01:50 sereno Sereno 4 3 93 1007 10 N 5.5
Oggi h: 01:20 sereno Sereno 3 2 93 1007 10 N 3.7
Oggi h: 00:50 sereno Sereno 4 2 86 1007 10 N 1.8
Oggi h: 00:20 sereno Sereno 5 2 80 1006 10 N 5.5
Ieri h: 23:50 sereno Sereno 6 4 86 1006 10 S/SO 11.1
Ieri h: 23:20 sereno Sereno 6 4 86 1006 10 O/SO 7.4
Ieri h: 22:50 sereno Sereno 7 5 87 1005 10 S/SO 13
Ieri h: 22:20 sereno Sereno 7 5 87 1005 10 S 7.4
Ieri h: 21:50 sereno Sereno 7 5 87 1005 10 N 1.8